• In Österreich
  • Länderverzeichnis
  • Für 7 Tage
  • Wassertemperatur
  • Satellitenkarten
  • Wetterkarte
  • News
  • Widgets
  • user-avatar
    Anmelden

    Stündliche Wetter Tshikapa

    Heute, 15 August, Mittwoch

    Zeit Temperatur Niederschläge Wind Luftdruck Luftfeuchtigkeit
    00:00 +31°C° 0 mm 1 m/S 717 mmHg 35%
    01:00 +29°C° 0 mm 0 m/S 717 mmHg 36%
    02:00 +28°C° 0 mm 0 m/S 717 mmHg 38%
    03:00 +28°C° 0 mm 0 m/S 717 mmHg 39%
    04:00 +30°C° 0 mm 1 m/S 717 mmHg 40%
    05:00 +28°C° 0 mm 0 m/S 717 mmHg 40%
    06:00 +28°C° 0 mm 0 m/S 718 mmHg 39%
    07:00 +28°C° 0 mm 0 m/S 718 mmHg 39%
    08:00 +32°C° 0 mm 0 m/S 718 mmHg 34%
    09:00 +35°C° 0 mm 0 m/S 719 mmHg 28%
    10:00 +38°C° 0 mm 0 m/S 719 mmHg 23%
    11:00 +38°C° 0 mm 0 m/S 718 mmHg 23%
    12:00 +37°C° 0 mm 0 m/S 718 mmHg 24%
    13:00 +39°C° 0 mm 1 m/S 717 mmHg 24%
    14:00 +39°C° 0 mm 1 m/S 716 mmHg 24%
    15:00 +37°C° 0 mm 1 m/S 716 mmHg 24%
    16:00 +37°C° 0 mm 1 m/S 715 mmHg 24%
    17:00 +35°C° 0 mm 1 m/S 716 mmHg 27%
    18:00 +34°C° 0 mm 1 m/S 716 mmHg 29%
    19:00 +33°C° 0 mm 1 m/S 716 mmHg 31%
    20:00 +32°C° 0 mm 1 m/S 717 mmHg 33%
    21:00 +31°C° 0 mm 1 m/S 717 mmHg 35%
    22:00 +30°C° 0 mm 1 m/S 717 mmHg 36%
    23:00 +30°C° 0 mm 1 m/S 717 mmHg 38%

    Morgen, 16 August, Donnerstag

    Zeit Temperatur Niederschläge Wind Luftdruck Luftfeuchtigkeit
    00:00 +29°C° 0 mm 1 m/S 716 mmHg 40%
    01:00 +26°C° 0 mm 0 m/S 716 mmHg 42%
    02:00 +26°C° 0 mm 0 m/S 716 mmHg 44%
    03:00 +26°C° 0 mm 0 m/S 716 mmHg 46%
    04:00 +25°C° 0 mm 0 m/S 716 mmHg 48%
    05:00 +26°C° 0 mm 0 m/S 716 mmHg 46%
    06:00 +27°C° 0 mm 0 m/S 717 mmHg 44%
    07:00 +30°C° 0 mm 1 m/S 718 mmHg 42%
    08:00 +33°C° 0 mm 1 m/S 718 mmHg 36%
    09:00 +36°C° 0 mm 1 m/S 719 mmHg 30%
    10:00 +41°C° 0 mm 1 m/S 719 mmHg 23%
    11:00 +42°C° 0 mm 1 m/S 718 mmHg 20%
    12:00 +43°C° 0 mm 1 m/S 717 mmHg 17%
    13:00 +45°C° 0 mm 1 m/S 717 mmHg 14%
    14:00 +43°C° 0 mm 1 m/S 716 mmHg 14%
    15:00 +42°C° 0 mm 1 m/S 715 mmHg 15%
    16:00 +41°C° 0 mm 1 m/S 714 mmHg 15%
    17:00 +39°C° 0 mm 1 m/S 715 mmHg 18%
    18:00 +35°C° 0 mm 1 m/S 715 mmHg 21%
    19:00 +33°C° 0 mm 1 m/S 715 mmHg 24%
    20:00 +32°C° 0 mm 1 m/S 716 mmHg 26%
    21:00 +32°C° 0 mm 1 m/S 716 mmHg 28%
    22:00 +31°C° 0 mm 1 m/S 716 mmHg 30%
    23:00 +30°C° 0 mm 1 m/S 716 mmHg 32%

    übermorgen, 17 August, Freitag

    Zeit Temperatur Niederschläge Wind Luftdruck Luftfeuchtigkeit
    00:00 +30°C° 0 mm 1 m/S 716 mmHg 33%
    01:00 +29°C° 0 mm 1 m/S 715 mmHg 35%
    02:00 +29°C° 0 mm 1 m/S 715 mmHg 38%
    03:00 +28°C° 0 mm 1 m/S 715 mmHg 40%
    04:00 +28°C° 0 mm 1 m/S 715 mmHg 42%
    05:00 +28°C° 0 mm 1 m/S 716 mmHg 41%
    06:00 +27°C° 0 mm 0 m/S 717 mmHg 40%
    07:00 +28°C° 0 mm 0 m/S 717 mmHg 38%
    08:00 +32°C° 0 mm 1 m/S 718 mmHg 34%
    09:00 +35°C° 0 mm 1 m/S 718 mmHg 30%
    10:00 +39°C° 0 mm 2 m/S 718 mmHg 26%
    11:00 +41°C° 0 mm 1 m/S 717 mmHg 22%
    12:00 +43°C° 0 mm 1 m/S 717 mmHg 18%
    13:00 +43°C° 0 mm 0 m/S 716 mmHg 15%
    14:00 +41°C° 0 mm 0 m/S 715 mmHg 16%
    15:00 +42°C° 0 mm 1 m/S 714 mmHg 17%
    16:00 +40°C° 0 mm 1 m/S 714 mmHg 18%
    17:00 +37°C° 0 mm 1 m/S 714 mmHg 20%
    18:00 +36°C° 0 mm 1 m/S 714 mmHg 23%
    19:00 +32°C° 0 mm 0 m/S 715 mmHg 25%
    20:00 +33°C° 0 mm 1 m/S 715 mmHg 27%
    21:00 +32°C° 0 mm 1 m/S 715 mmHg 29%
    22:00 +31°C° 0 mm 1 m/S 716 mmHg 31%
    23:00 +31°C° 0 mm 1 m/S 715 mmHg 33%

    18 August, Samstag

    Zeit Temperatur Niederschläge Wind Luftdruck Luftfeuchtigkeit
    00:00 +30°C° 0 mm 1 m/S 715 mmHg 34%
    01:00 +29°C° 0 mm 1 m/S 714 mmHg 36%
    02:00 +29°C° 0 mm 1 m/S 714 mmHg 37%
    03:00 +29°C° 0 mm 1 m/S 714 mmHg 38%
    04:00 +28°C° 0 mm 1 m/S 714 mmHg 39%
    05:00 +29°C° 0 mm 1 m/S 715 mmHg 38%
    06:00 +29°C° 0 mm 1 m/S 716 mmHg 38%
    07:00 +30°C° 0 mm 1 m/S 716 mmHg 37%
    08:00 +32°C° 0 mm 1 m/S 717 mmHg 33%
    09:00 +36°C° 0 mm 2 m/S 717 mmHg 30%
    10:00 +38°C° 0 mm 2 m/S 717 mmHg 27%
    11:00 +40°C° 0 mm 2 m/S 717 mmHg 23%
    12:00 +42°C° 0 mm 1 m/S 716 mmHg 20%
    13:00 +44°C° 0 mm 1 m/S 715 mmHg 17%
    14:00 +42°C° 0 mm 1 m/S 714 mmHg 18%
    15:00 +38°C° 0 mm 0 m/S 714 mmHg 20%
    16:00 +36°C° 0 mm 0 m/S 713 mmHg 22%
    17:00 +34°C° 0 mm 0 m/S 714 mmHg 24%
    18:00 +33°C° 0 mm 0 m/S 714 mmHg 27%
    19:00 +31°C° 0 mm 0 m/S 715 mmHg 29%
    20:00 +30°C° 0 mm 0 m/S 715 mmHg 31%
    21:00 +30°C° 0 mm 0 m/S 715 mmHg 32%
    22:00 +31°C° 0 mm 1 m/S 715 mmHg 33%
    23:00 +31°C° 0 mm 1 m/S 715 mmHg 36%

    19 August, Sonntag

    Zeit Temperatur Niederschläge Wind Luftdruck Luftfeuchtigkeit
    00:00 +30°C° 0 mm 1 m/S 715 mmHg 38%
    01:00 +29°C° 0 mm 1 m/S 714 mmHg 40%
    02:00 +29°C° 0 mm 1 m/S 714 mmHg 43%
    03:00 +28°C° 0 mm 1 m/S 714 mmHg 45%
    04:00 +27°C° 0 mm 1 m/S 714 mmHg 48%
    05:00 +28°C° 0 mm 1 m/S 715 mmHg 48%
    06:00 +29°C° 0 mm 1 m/S 716 mmHg 47%
    07:00 +29°C° 0 mm 2 m/S 717 mmHg 47%
    08:00 +32°C° 0 mm 2 m/S 717 mmHg 41%
    09:00 +36°C° 0 mm 2 m/S 717 mmHg 35%
    10:00 +38°C° 0 mm 2 m/S 717 mmHg 28%
    11:00 +40°C° 0 mm 2 m/S 717 mmHg 25%
    12:00 +42°C° 0 mm 1 m/S 716 mmHg 21%
    13:00 +44°C° 0 mm 1 m/S 715 mmHg 18%
    14:00 +43°C° 0 mm 1 m/S 715 mmHg 19%
    15:00 +41°C° 0 mm 1 m/S 714 mmHg 20%
    16:00 +39°C° 0 mm 1 m/S 714 mmHg 22%
    17:00 +37°C° 0 mm 1 m/S 714 mmHg 24%
    18:00 +35°C° 0 mm 1 m/S 715 mmHg 27%
    19:00 +34°C° 0 mm 1 m/S 715 mmHg 29%
    20:00 +33°C° 0 mm 1 m/S 715 mmHg 32%
    21:00 +32°C° 0 mm 1 m/S 716 mmHg 34%
    22:00 +31°C° 0 mm 1 m/S 716 mmHg 37%
    23:00 +30°C° 0 mm 1 m/S 716 mmHg 41%

    20 August, Montag

    Zeit Temperatur Niederschläge Wind Luftdruck Luftfeuchtigkeit
    00:00 +30°C° 0 mm 1 m/S 715 mmHg 45%
    01:00 +29°C° 0 mm 2 m/S 715 mmHg 49%
    02:00 +28°C° 0 mm 1 m/S 715 mmHg 53%
    03:00 +28°C° 0 mm 1 m/S 715 mmHg 57%
    04:00 +27°C° 0 mm 1 m/S 715 mmHg 61%
    05:00 +28°C° 0 mm 1 m/S 716 mmHg 59%
    06:00 +29°C° 0 mm 2 m/S 717 mmHg 58%
    07:00 +29°C° 0 mm 2 m/S 717 mmHg 56%
    08:00 +32°C° 0 mm 2 m/S 717 mmHg 48%
    09:00 +35°C° 0 mm 2 m/S 718 mmHg 40%
    10:00 +37°C° 0 mm 2 m/S 718 mmHg 31%
    11:00 +39°C° 0 mm 2 m/S 717 mmHg 27%
    12:00 +41°C° 0 mm 1 m/S 716 mmHg 24%
    13:00 +40°C° 0 mm 0 m/S 716 mmHg 20%
    14:00 +42°C° 0 mm 1 m/S 715 mmHg 21%
    15:00 +41°C° 0 mm 1 m/S 715 mmHg 22%
    16:00 +39°C° 0 mm 1 m/S 714 mmHg 23%
    17:00 +36°C° 0 mm 1 m/S 714 mmHg 26%
    18:00 +35°C° 0 mm 1 m/S 715 mmHg 30%
    19:00 +33°C° 0 mm 1 m/S 715 mmHg 34%
    20:00 +32°C° 0 mm 1 m/S 715 mmHg 39%
    21:00 +31°C° 0 mm 1 m/S 716 mmHg 43%
    22:00 +30°C° 0 mm 1 m/S 716 mmHg 47%
    23:00 +29°C° 0 mm 1 m/S 715 mmHg 49%
    Mehr zeigen